636  
ASUS46 KPQR 222210  
RWROR  
 
OREGON REGIONAL WEATHER ROUNDUP  
NATIONAL WEATHER SERVICE PORTLAND OR  
300 PM PDT SAT SEP 22 2018  
 
NOTE: "FAIR" INDICATES FEW OR NO CLOUDS BELOW 12,000 FEET WITH  
NO SIGNIFICANT WEATHER AND/OR S TO VISIBILITY
.  
 
ORZ001>013-222300-  
NORTHWEST OREGON  
 
 
CITY SKY/WX TMP DP RH WIND PRES REMARKS
 
ASTORIA CLOUDY 62 55 77 W13 30.03R  
TILLAMOOK CLOUDY 63 54 72 W9 30.07S  
NEWPORT CLOUDY 61 55 82 SW7 30.11S  
PORTLAND PTSUNNY 68 53 58 SW12 30.01S  
VANCOUVER WA PTSUNNY 69 52 54 W9G18 30.00F  
SCAPPOOSE PTSUNNY 69 53 56 N10G21 30.00R  
HILLSBORO CLOUDY 70 51 51 SW12G21 30.01F  
AURORA PTSUNNY 69 53 56 SW8 30.03F  
MCMINNVILLE CLOUDY 67 54 63 SW10 30.03S  
SALEM CLOUDY 68 50 52 W12 30.03S  
CORVALLIS CLOUDY 67 53 61 W12 30.06S  
EUGENE CLOUDY 72 49 44 SW8 30.05F  

 
 
ORZ021-028-222300-  
SOUTHWEST OREGON  
 
 
CITY SKY/WX TMP DP RH WIND PRES REMARKS
 
NORTH BEND PTSUNNY 65 57 75 NW9 30.10F  
BROOKINGS CLOUDY 65 56 72 NW12 30.06S  
ROSEBURG CLOUDY 68 51 54 VRB3 30.05F  
SEXTON SUMMIT CLOUDY 56 48 74 VRB5 30.08F  
GRANTS PASS FAIR 68 50 52 N8G16 30.04F  
MEDFORD CLOUDY 71 47 42 N6 30.00F  

 
 
ORZ014>016-041-222300-  
COLUMBIA GORGE  
 
 
CITY SKY/WX TMP DP RH WIND PRES REMARKS
 
TROUTDALE CLOUDY 70 54 56 W9G17 30.00F  
HOOD RIVER RAIN 59 54 82 NW9 30.00R  
THE DALLES PTSUNNY 69 50 50 NW18G25 29.95S  

 
 
ORZ029>031-041-044-049-050-061>064-502-503-505>511-222300-  
EASTERN OREGON  
 
 
CITY SKY/WX TMP DP RH WIND PRES REMARKS
 
MADRAS CLOUDY 64 37 36 W10G20 30.03S  
REDMOND CLOUDY 66 42 41 NW15G21 30.01S  
BEND CLOUDY 66 34 30 W9 30.02S  
PRINEVILLE CLOUDY 64 41 42 N15 30.02R  
KLAMATH FALLS PTSUNNY 74 29 19 W12 30.02F  
LAKEVIEW PTSUNNY 73 24 16 SW20 30.03F  
HERMISTON CLOUDY 72 45 37 W13 29.94F  
PENDLETON CLOUDY 68 47 46 W14 29.96F  
JOHN DAY RAIN 57 47 68 SW8 30.03S  
MEACHAM CLOUDY 59 45 59 CALM 30.02F  
LA GRANDE LGT RAIN 59 49 69 N3 30.02S  
BAKER CITY CLOUDY 67 41 38 NW14 29.99F  
BURNS CLOUDY 69 28 21 W10 30.01F  
ROME N/A 84 14 7 S15G23 29.93F  
ONTARIO PTSUNNY 81 31 16 VRB3 29.91F  

 
 
 
CLICK HERE TO GO TO PREVIOUS BULLETINS.

The Nexlab OR Page Main Text Page